Time,TemperatureF,DewpointF,PressureIn,WindDirection,WindDirectionDegrees,WindSpeedMPH,WindSpeedGustMPH,Humidity,HourlyPrecipIn,Conditions,Clouds,dailyrainin,SolarRadiationWatts/m^2,SoftwareType,DateUTC
2013-03-27 00:03:00,35.0,27.0,-100.00,West,272,5.0,8.0,72,0.00,,,0.02,0.000000,,2013-03-27 04:03:00,
2013-03-27 00:10:00,34.0,27.0,-100.00,WNW,282,4.0,9.0,74,0.00,,,0.02,0.000000,,2013-03-27 04:10:00,
2013-03-27 00:33:00,34.0,27.0,-100.00,WNW,282,4.0,9.0,74,0.00,,,0.02,0.000000,,2013-03-27 04:33:00,
2013-03-27 00:43:00,34.0,27.0,-100.00,WNW,282,4.0,9.0,74,0.00,,,0.02,0.000000,,2013-03-27 04:43:00,
2013-03-27 00:53:00,34.0,27.0,-100.00,WNW,282,4.0,9.0,74,0.00,,,0.02,0.000000,,2013-03-27 04:53:00,
2013-03-27 01:03:00,34.0,27.0,-100.00,WNW,282,4.0,9.0,74,0.00,,,0.02,0.000000,,2013-03-27 05:03:00,
2013-03-27 01:10:00,34.0,27.0,-100.00,West,274,4.0,7.0,76,0.00,,,0.02,0.000000,,2013-03-27 05:10:00,
2013-03-27 01:42:00,34.0,27.0,-100.00,West,274,4.0,7.0,76,0.00,,,0.02,0.000000,,2013-03-27 05:42:00,
2013-03-27 01:53:00,34.0,27.0,-100.00,West,274,4.0,7.0,76,0.00,,,0.02,0.000000,,2013-03-27 05:53:00,
2013-03-27 02:02:00,34.0,27.0,-100.00,West,274,4.0,7.0,76,0.00,,,0.02,0.000000,,2013-03-27 06:02:00,
2013-03-27 02:10:00,33.0,24.0,-100.00,WNW,301,4.0,11.0,70,0.00,,,0.02,0.000000,,2013-03-27 06:10:00,
2013-03-27 02:32:00,33.0,24.0,-100.00,WNW,301,4.0,11.0,70,0.00,,,0.02,0.000000,,2013-03-27 06:32:00,
2013-03-27 02:42:00,33.0,24.0,-100.00,WNW,301,4.0,11.0,70,0.00,,,0.02,0.000000,,2013-03-27 06:42:00,
2013-03-27 02:53:00,33.0,24.0,-100.00,WNW,301,4.0,11.0,70,0.00,,,0.02,0.000000,,2013-03-27 06:53:00,
2013-03-27 03:02:00,33.0,24.0,-100.00,WNW,301,4.0,11.0,70,0.00,,,0.02,0.000000,,2013-03-27 07:02:00,
2013-03-27 03:10:00,32.0,23.0,-100.00,WNW,302,4.0,8.0,68,0.00,,,0.02,0.000000,,2013-03-27 07:10:00,
2013-03-27 03:32:00,32.0,23.0,-100.00,WNW,302,4.0,8.0,68,0.00,,,0.02,0.000000,,2013-03-27 07:32:00,
2013-03-27 03:43:00,32.0,23.0,-100.00,WNW,302,4.0,8.0,68,0.00,,,0.02,0.000000,,2013-03-27 07:43:00,
2013-03-27 03:54:00,32.0,23.0,-100.00,WNW,302,4.0,8.0,68,0.00,,,0.02,0.000000,,2013-03-27 07:54:00,
2013-03-27 04:02:00,32.0,23.0,-100.00,WNW,302,4.0,8.0,68,0.00,,,0.02,0.000000,,2013-03-27 08:02:00,
2013-03-27 04:10:00,32.0,22.0,-100.00,WNW,300,5.0,10.0,65,0.00,,,0.02,0.000000,,2013-03-27 08:10:00,
2013-03-27 04:32:00,32.0,22.0,-100.00,WNW,300,5.0,10.0,65,0.00,,,0.02,0.000000,,2013-03-27 08:32:00,
2013-03-27 04:43:00,32.0,22.0,-100.00,WNW,300,5.0,10.0,65,0.00,,,0.02,0.000000,,2013-03-27 08:43:00,
2013-03-27 04:52:00,32.0,22.0,-100.00,WNW,300,5.0,10.0,65,0.00,,,0.02,0.000000,,2013-03-27 08:52:00,
2013-03-27 05:02:00,32.0,22.0,-100.00,WNW,300,5.0,10.0,65,0.00,,,0.02,0.000000,,2013-03-27 09:02:00,
2013-03-27 05:10:00,31.0,21.0,-100.00,WNW,284,4.0,9.0,66,0.00,,,0.02,0.000000,,2013-03-27 09:10:00,
2013-03-27 05:42:00,31.0,21.0,-100.00,WNW,284,4.0,9.0,66,0.00,,,0.02,0.000000,,2013-03-27 09:42:00,
2013-03-27 05:52:00,31.0,21.0,-100.00,WNW,284,4.0,9.0,66,0.00,,,0.02,0.000000,,2013-03-27 09:52:00,
2013-03-27 06:03:00,31.0,21.0,-100.00,WNW,284,4.0,9.0,66,0.00,,,0.02,0.000000,,2013-03-27 10:03:00,
2013-03-27 06:10:00,32.0,23.0,-100.00,WNW,284,4.0,8.0,68,0.00,,,0.02,0.000000,,2013-03-27 10:10:00,
2013-03-27 06:32:00,32.0,23.0,-100.00,WNW,284,4.0,8.0,68,0.00,,,0.02,0.000000,,2013-03-27 10:32:00,
2013-03-27 06:42:00,32.0,23.0,-100.00,WNW,284,4.0,8.0,68,0.00,,,0.02,0.000000,,2013-03-27 10:42:00,
2013-03-27 06:53:00,32.0,23.0,-100.00,WNW,284,4.0,8.0,68,0.00,,,0.02,0.000000,,2013-03-27 10:53:00,
2013-03-27 07:03:00,32.0,23.0,-100.00,WNW,284,4.0,8.0,68,0.00,,,0.02,0.000000,,2013-03-27 11:03:00,
2013-03-27 07:10:00,33.0,26.0,-100.00,West,279,5.0,10.0,75,0.00,,,0.02,4.000000,,2013-03-27 11:10:00,
2013-03-27 07:32:00,33.0,26.0,-100.00,West,279,5.0,10.0,75,0.00,,,0.02,4.000000,,2013-03-27 11:32:00,
2013-03-27 07:42:00,33.0,26.0,-100.00,West,279,5.0,10.0,75,0.00,,,0.02,4.000000,,2013-03-27 11:42:00,
2013-03-27 07:53:00,33.0,26.0,-100.00,West,279,5.0,10.0,75,0.00,,,0.02,4.000000,,2013-03-27 11:53:00,
2013-03-27 08:02:00,33.0,26.0,-100.00,West,279,5.0,10.0,75,0.00,,,0.02,4.000000,,2013-03-27 12:02:00,
2013-03-27 08:10:00,35.0,27.0,-100.00,WNW,284,7.0,11.0,73,0.00,,,0.02,74.000000,,2013-03-27 12:10:00,
2013-03-27 08:32:00,35.0,27.0,-100.00,WNW,284,7.0,11.0,73,0.00,,,0.02,74.000000,,2013-03-27 12:32:00,
2013-03-27 08:43:00,35.0,27.0,-100.00,WNW,284,7.0,11.0,73,0.00,,,0.02,74.000000,,2013-03-27 12:43:00,
2013-03-27 08:52:00,35.0,27.0,-100.00,WNW,284,7.0,11.0,73,0.00,,,0.02,74.000000,,2013-03-27 12:52:00,
2013-03-27 09:02:00,35.0,27.0,-100.00,WNW,284,7.0,11.0,73,0.00,,,0.02,74.000000,,2013-03-27 13:02:00,
2013-03-27 09:10:00,38.0,29.0,-100.00,West,279,7.0,15.0,70,0.00,,,0.00,276.000000,,2013-03-27 13:10:00,
2013-03-27 09:42:00,38.0,29.0,-100.00,West,279,7.0,15.0,70,0.00,,,0.00,276.000000,,2013-03-27 13:42:00,
2013-03-27 09:53:00,38.0,29.0,-100.00,West,279,7.0,15.0,70,0.00,,,0.00,276.000000,,2013-03-27 13:53:00,
2013-03-27 10:02:00,38.0,29.0,-100.00,West,279,7.0,15.0,70,0.00,,,0.00,276.000000,,2013-03-27 14:02:00,
2013-03-27 10:10:00,41.0,29.0,-100.00,WNW,289,7.0,15.0,62,0.00,,,0.00,531.000000,,2013-03-27 14:10:00,
2013-03-27 10:42:00,41.0,29.0,-100.00,WNW,289,7.0,15.0,62,0.00,,,0.00,531.000000,,2013-03-27 14:42:00,
2013-03-27 10:52:00,41.0,29.0,-100.00,WNW,289,7.0,15.0,62,0.00,,,0.00,531.000000,,2013-03-27 14:52:00,
2013-03-27 11:03:00,41.0,29.0,-100.00,WNW,289,7.0,15.0,62,0.00,,,0.00,531.000000,,2013-03-27 15:03:00,
2013-03-27 11:10:00,43.0,25.0,-100.00,NW,309,9.0,16.0,49,0.00,,,0.00,678.000000,,2013-03-27 15:10:00,
2013-03-27 11:33:00,43.0,25.0,-100.00,NW,309,9.0,16.0,49,0.00,,,0.00,678.000000,,2013-03-27 15:33:00,
2013-03-27 11:43:00,43.0,25.0,-100.00,NW,309,9.0,16.0,49,0.00,,,0.00,678.000000,,2013-03-27 15:43:00,
2013-03-27 11:53:00,43.0,25.0,-100.00,NW,309,9.0,16.0,49,0.00,,,0.00,678.000000,,2013-03-27 15:53:00,
2013-03-27 12:03:00,43.0,25.0,-100.00,NW,309,9.0,16.0,49,0.00,,,0.00,678.000000,,2013-03-27 16:03:00,
2013-03-27 14:10:00,45.0,19.0,-100.00,WNW,299,8.0,19.0,35,-99.99,,,-99.99,618.000000,,2013-03-27 18:10:00,
2013-03-27 14:33:00,45.0,19.0,-100.00,WNW,299,8.0,19.0,35,-99.99,,,-99.99,618.000000,,2013-03-27 18:33:00,
2013-03-27 14:42:00,45.0,19.0,-100.00,WNW,299,8.0,19.0,35,-99.99,,,-99.99,618.000000,,2013-03-27 18:42:00,
2013-03-27 14:53:00,45.0,19.0,-100.00,WNW,299,8.0,19.0,35,-99.99,,,-99.99,618.000000,,2013-03-27 18:53:00,
2013-03-27 15:03:00,45.0,19.0,-100.00,WNW,299,8.0,19.0,35,-99.99,,,-99.99,618.000000,,2013-03-27 19:03:00,
2013-03-27 15:10:00,45.0,19.0,-100.00,NW,310,7.0,19.0,35,0.00,,,0.00,231.000000,,2013-03-27 19:10:00,
2013-03-27 15:42:00,45.0,19.0,-100.00,NW,310,7.0,19.0,35,0.00,,,0.00,231.000000,,2013-03-27 19:42:00,
2013-03-27 15:52:00,45.0,19.0,-100.00,NW,310,7.0,19.0,35,0.00,,,0.00,231.000000,,2013-03-27 19:52:00,
2013-03-27 16:03:00,45.0,19.0,-100.00,NW,310,7.0,19.0,35,0.00,,,0.00,231.000000,,2013-03-27 20:03:00,
2013-03-27 16:10:00,46.0,16.0,-100.00,NW,320,6.0,19.0,29,0.00,,,0.00,374.000000,,2013-03-27 20:10:00,
2013-03-27 16:43:00,46.0,16.0,-100.00,NW,320,6.0,19.0,29,0.00,,,0.00,374.000000,,2013-03-27 20:43:00,
2013-03-27 16:52:00,46.0,16.0,-100.00,NW,320,6.0,19.0,29,0.00,,,0.00,374.000000,,2013-03-27 20:52:00,
2013-03-27 17:02:00,46.0,16.0,-100.00,NW,320,6.0,19.0,29,0.00,,,0.00,374.000000,,2013-03-27 21:02:00,
2013-03-27 17:10:00,48.0,22.0,-100.00,WNW,285,11.0,21.0,36,0.00,,,0.00,605.000000,,2013-03-27 21:10:00,
2013-03-27 17:33:00,48.0,22.0,-100.00,WNW,285,11.0,21.0,36,0.00,,,0.00,605.000000,,2013-03-27 21:33:00,
2013-03-27 17:44:00,48.0,22.0,-100.00,WNW,285,11.0,21.0,36,0.00,,,0.00,605.000000,,2013-03-27 21:44:00,
2013-03-27 17:52:00,48.0,22.0,-100.00,WNW,285,11.0,21.0,36,0.00,,,0.00,605.000000,,2013-03-27 21:52:00,
2013-03-27 18:03:00,48.0,22.0,-100.00,WNW,285,11.0,21.0,36,0.00,,,0.00,605.000000,,2013-03-27 22:03:00,
2013-03-27 18:10:00,41.0,30.0,-100.00,NW,313,7.0,22.0,64,0.00,,,0.00,117.000000,,2013-03-27 22:10:00,
2013-03-27 18:42:00,41.0,30.0,-100.00,NW,313,7.0,22.0,64,0.00,,,0.00,117.000000,,2013-03-27 22:42:00,
2013-03-27 18:53:00,41.0,30.0,-100.00,NW,313,7.0,22.0,64,0.00,,,0.00,117.000000,,2013-03-27 22:53:00,
2013-03-27 19:03:00,41.0,30.0,-100.00,NW,313,7.0,22.0,64,0.00,,,0.00,117.000000,,2013-03-27 23:03:00,
2013-03-27 19:10:00,39.0,25.0,-100.00,West,279,5.0,20.0,57,0.00,,,0.00,75.000000,,2013-03-27 23:10:00,
2013-03-27 19:43:00,39.0,25.0,-100.00,West,279,5.0,20.0,57,0.00,,,0.00,75.000000,,2013-03-27 23:43:00,
2013-03-27 19:52:00,39.0,25.0,-100.00,West,279,5.0,20.0,57,0.00,,,0.00,75.000000,,2013-03-27 23:52:00,
2013-03-27 20:02:00,39.0,25.0,-100.00,West,279,5.0,20.0,57,0.00,,,0.00,75.000000,,2013-03-28 00:02:00,